Location: Ballingbuur
(53.0000°N, 5.7667°E)
Time: 12:20:40
(UTC+00:00)

FENGYUN 3A - Visible Passes

Search period start: 12 April 2021 00:00
Search period end: 22 April 2021 00:00
Orbit: 824 x 836 km, 98.4° (Epoch: 11 April)

Date Brightness Start Highest point End Pass type
(mag) Time Alt. Az. Time Alt. Az. Time Alt. Az.
12 Apr 5.0 03:20:55 10° NNE 03:26:00 40° E 03:31:02 10° SSE visible
13 Apr 5.5 03:03:12 10° NNE 03:07:56 30° E 03:12:37 10° SSE visible
14 Apr 5.9 02:45:38 10° NE 02:49:49 22° E 02:53:58 10° SE visible
15 Apr 6.2 02:28:17 10° NE 02:31:39 17° E 02:35:00 10° SE visible
16 Apr 6.4 02:11:28 10° ENE 02:13:26 12° E 02:15:24 10° ESE visible
16 Apr 4.1 03:49:26 10° NNE 03:54:51 65° ESE 04:00:11 10° S visible
17 Apr 4.7 03:31:37 10° NNE 03:36:51 48° E 03:42:03 10° S visible
18 Apr 5.2 03:13:51 10° NNE 03:18:49 36° E 03:23:45 10° SSE visible
19 Apr 5.7 02:56:12 10° NE 03:00:45 27° E 03:05:14 10° SSE visible
20 Apr 6.1 02:38:41 10° NE 02:42:36 20° E 02:46:30 10° SE visible
21 Apr 6.3 02:21:28 10° NE 02:24:25 15° E 02:27:22 10° ESE visible
